Dansville, NY

11:04 PM EST on December 06, 2019 (GMT -0500)
Dansville Municipal

Weather History for KDSV - November, 2019

Change the Weather History Date:

Sunday, November 17, 2019

  Actual Average Record
Temperature  
Mean Temperature 30 °F -  
Max Temperature 42 °F 45 °F 70 °F (1953)
Min Temperature 19 °F 28 °F 12 °F (1967)
Degree Days  
Heating Degree Days 34    
Moisture  
Dew Point 20 °F    
Average Humidity 62    
Maximum Humidity 77    
Minimum Humidity 40    
Precipitation  
Precipitation 0.00 in - - ()
Sea Level Pressure  
Sea Level Pressure 30.23 in    
Wind  
Wind Speed 8 mph (SSE)    
Max Wind Speed 16 mph    
Max Gust Speed 24 mph    
Visibility 10 miles    
Events      
Averages and records for this station are not official NWS values.
T = Trace of Precipitation, MM = Missing Value Source: NWS Daily Summary

Daily Weather History Graph

Daily Weather History Graph

Search for Another Location

Airport or City:

Astronomy

Nov. 17, 2019 Rise Set
Actual Time 7:04 AM EST 4:46 PM EST
Civil Twilight 6:33 AM EST 5:17 PM EST
Nautical Twilight 5:59 AM EST 5:51 PM EST
Astronomical Twilight 5:26 AM EST 6:24 PM EST
Moon 9:19 PM EST (11/17) 11:50 AM EST (11/17)
Length of Visible Light 10h 43m
Length of Day
9h 42m
Waning Gibbous, 73% of the Moon is Illuminated
Nov 17
Waning Gibbous
Nov 19
Last Quarter
Nov 26
New
Dec 4
First Quarter
Dec 12
Full

Hourly Weather History & Observations

Time (EST) Temp. Windchill Dew Point Humidity Pressure Visibility Wind Dir Wind Speed Gust Speed Precip Events Conditions
12:54 AM 21.0 °F 12.4 °F 12.9 °F 71% 30.43 in 10.0 mi SSE 6.9 mph - N/A   Clear
2:54 AM 21.0 °F 11.4 °F 14.0 °F 74% 30.42 in 10.0 mi South 8.1 mph - N/A   Clear
3:54 AM 21.0 °F 12.4 °F 12.9 °F 71% 30.40 in 10.0 mi South 6.9 mph - N/A   Clear
4:54 AM 19.0 °F 12.3 °F 12.9 °F 77% 30.40 in 10.0 mi SSE 4.6 mph - N/A   Clear
5:54 AM 19.9 °F 9.3 °F 12.0 °F 71% 30.39 in 10.0 mi SSE 9.2 mph - N/A   Clear
6:54 AM 19.9 °F 9.3 °F 10.9 °F 68% 30.38 in 10.0 mi South 9.2 mph - N/A   Clear
7:54 AM 21.0 °F 12.4 °F 12.0 °F 68% 30.37 in 10.0 mi SSE 6.9 mph - N/A   Clear
8:54 AM 26.1 °F 17.6 °F 10.9 °F 53% 30.36 in 10.0 mi South 8.1 mph - N/A   Clear
9:54 AM 32.0 °F 26.4 °F 10.0 °F 40% 30.34 in 10.0 mi South 5.8 mph - N/A   Clear
10:54 AM 36.0 °F 29.6 °F 15.1 °F 43% 30.30 in 10.0 mi South 8.1 mph - N/A   Overcast
11:54 AM 37.0 °F 28.5 °F 17.1 °F 44% 30.25 in 10.0 mi SE 13.8 mph - N/A   Overcast
12:54 PM 39.9 °F 32.5 °F 19.9 °F 45% 30.21 in 10.0 mi SE 12.7 mph - N/A   Partly Cloudy
1:54 PM 41.0 °F 32.8 °F 21.9 °F 47% 30.18 in 10.0 mi SSE 16.1 mph 24.2 mph N/A   Clear
2:54 PM 42.1 °F 34.9 °F 25.0 °F 51% 30.15 in 10.0 mi SSE 13.8 mph - N/A   Clear
3:54 PM 42.1 °F 34.9 °F 27.0 °F 55% 30.14 in 10.0 mi SSE 13.8 mph - N/A   Clear
4:54 PM 39.0 °F 34.0 °F 28.0 °F 65% 30.13 in 10.0 mi SE 6.9 mph - N/A   Clear
5:54 PM 37.9 °F 32.7 °F 28.9 °F 70% 30.12 in 10.0 mi SSE 6.9 mph - N/A   Clear
6:54 PM 37.0 °F 32.4 °F 27.0 °F 67% 30.12 in 10.0 mi South 5.8 mph - N/A   Overcast
7:54 PM 37.9 °F 34.4 °F 26.1 °F 62% 30.10 in 10.0 mi South 4.6 mph - N/A   Overcast
8:54 PM 37.9 °F 32.1 °F 26.1 °F 62% 30.08 in 10.0 mi SE 8.1 mph - N/A   Overcast
9:54 PM 37.0 °F 31.6 °F 26.1 °F 65% 30.05 in 10.0 mi SSE 6.9 mph - N/A   Scattered Clouds
10:54 PM 35.1 °F 29.3 °F 27.0 °F 72% 30.03 in 10.0 mi SSE 6.9 mph - N/A   Overcast
11:54 PM 34.0 °F 29.8 °F 27.0 °F 75% 30.01 in 10.0 mi South 4.6 mph - N/A   Clear